ASA362 KSEA-PANC

Flight info

Callsign ASA362
Flight time N/A
Altitude 32000
Route BANGR9 ARRIE FOCHE PRYCE BKA LAIRE JOH PTERS3
Aircraft B738/M-SDGIRW/LB1

Departure

Time 2026-05-06 05:33
Airport Seattle–Tacoma International Airport (KSEA)

Arrival

Time N/A
Airport Ted Stevens Anchorage International Airport (PANC)
Time Latitude Longitude Altitude Speed Heading
2026-05-06 05:26 47.45040 -122.30282 410 ft 0 kts 271°
2026-05-06 05:27 47.45042 -122.30344 410 ft 8 kts 272°
2026-05-06 05:27 47.45045 -122.30448 413 ft 14 kts 272°
2026-05-06 05:27 47.45053 -122.30594 413 ft 14 kts 300°
2026-05-06 05:28 47.45153 -122.30627 407 ft 19 kts
2026-05-06 05:28 47.45288 -122.30625 415 ft 20 kts
2026-05-06 05:28 47.45435 -122.30624 422 ft 21 kts
2026-05-06 05:28 47.45579 -122.30622 427 ft 20 kts
2026-05-06 05:29 47.45767 -122.30620 436 ft 29 kts
2026-05-06 05:29 47.45962 -122.30618 436 ft 29 kts 360°
2026-05-06 05:29 47.46163 -122.30616 435 ft 28 kts
2026-05-06 05:29 47.46344 -122.30622 436 ft 17 kts 340°
2026-05-06 05:30 47.46355 -122.30765 439 ft 16 kts 225°
2026-05-06 05:30 47.46297 -122.30778 435 ft 8 kts 181°
2026-05-06 05:30 47.46251 -122.30779 432 ft 3 kts 181°
2026-05-06 05:30 47.46247 -122.30779 436 ft 0 kts 181°
2026-05-06 05:31 47.46246 -122.30779 436 ft 0 kts 181°
2026-05-06 05:31 47.46242 -122.30779 435 ft 1 kts 181°
2026-05-06 05:31 47.46241 -122.30779 435 ft 0 kts 181°
2026-05-06 05:32 47.46240 -122.30779 435 ft 0 kts 181°
2026-05-06 05:32 47.46122 -122.30779 433 ft 56 kts 180°
2026-05-06 05:32 47.45429 -122.30785 422 ft 137 kts 180°
2026-05-06 05:33 47.44263 -122.30794 415 ft 194 kts 180°
2026-05-06 05:33 47.42858 -122.30819 954 ft 208 kts 180°
2026-05-06 05:33 47.41379 -122.30847 1681 ft 211 kts 185°
2026-05-06 05:33 47.40118 -122.30879 2948 ft 199 kts 170°
2026-05-06 05:34 47.38652 -122.30895 3375 ft 230 kts 173°
2026-05-06 05:34 47.36971 -122.30940 3838 ft 244 kts 174°
2026-05-06 05:34 47.35243 -122.31007 4396 ft 251 kts 174°
2026-05-06 05:34 47.33495 -122.31410 5051 ft 262 kts 200°
2026-05-06 05:35 47.32096 -122.33079 5733 ft 261 kts 240°
2026-05-06 05:35 47.31501 -122.35525 6326 ft 252 kts 268°
2026-05-06 05:35 47.31032 -122.40102 7384 ft 257 kts 269°
2026-05-06 05:36 47.30791 -122.42712 8017 ft 255 kts 276°
2026-05-06 05:36 47.31147 -122.45137 8587 ft 236 kts 306°
2026-05-06 05:36 47.31894 -122.47243 9148 ft 236 kts 309°
2026-05-06 05:36 47.32681 -122.49378 9703 ft 238 kts 309°
2026-05-06 05:37 47.33491 -122.51511 10245 ft 236 kts 314°
2026-05-06 05:37 47.34589 -122.53197 10760 ft 225 kts 330°
2026-05-06 05:37 47.35790 -122.54701 11276 ft 228 kts 330°
2026-05-06 05:37 47.37025 -122.56238 11597 ft 242 kts 330°
2026-05-06 05:38 47.38364 -122.57904 11857 ft 258 kts 329°
2026-05-06 05:38 47.39744 -122.59649 12393 ft 263 kts 328°
2026-05-06 05:38 47.40252 -122.60295 12630 ft 263 kts 328°
2026-05-06 05:38 47.40983 -122.61229 12955 ft 264 kts 328°